EW1549 Weather Reports


Display with metric or nautical units.
time (UTC)temp
F
wind
direction
speed
MPH
gust
MPH
rain 1hr
in
rain 24hr
in
rain mn
in
humidity
%
barometer
mb
20260504223032 68 296 0.0 3.0 0.00 0.00 0.00 79 1015.6
20260504221531 68 296 0.0 2.0 0.00 0.00 0.00 78 1015.7
20260504220043 68 298 0.0 3.0 0.00 0.00 0.00 78 1015.7
20260504214535 68 319 0.0 4.0 0.00 0.00 0.00 78 1015.6
20260504213039 69 22 1.0 3.0 0.00 0.00 0.00 78 1015.6
20260504211536 69 22 1.0 3.0 0.00 0.00 0.00 78 1015.5
20260504210027 69 22 0.0 3.0 0.00 0.00 0.00 77 1015.4
20260504204536 69 22 2.0 3.0 0.00 0.00 0.00 77 1015.3
20260504203025 69 21 0.0 4.0 0.00 0.00 0.00 76 1015.1
20260504201526 70 21 1.0 3.0 0.00 0.00 0.00 76 1015.1
20260504200024 70 21 3.0 5.0 0.00 0.00 0.00 76 1015.2
20260504194524 71 21 0.0 2.0 0.00 0.00 0.00 76 1014.9
20260504193024 70 21 1.0 5.0 0.00 0.00 0.00 76 1014.9
20260504191526 71 22 2.0 5.0 0.00 0.00 0.00 74 1014.8
20260504190027 71 41 3.0 8.0 0.00 0.00 0.00 74 1014.6
20260504184522 72 25 3.0 6.0 0.00 0.00 0.00 74 1014.4
20260504183021 72 4 6.0 9.0 0.00 0.00 0.00 72 1014.0
20260504181521 73 17 4.0 8.0 0.00 0.00 0.00 72 1013.5
20260504180007 72 331 4.0 10.0 0.00 0.00 0.00 72 1013.9
20260504174506 72 329 4.0 9.0 0.00 0.00 0.00 74 1014.2
20260504173004 72 41 5.0 12.0 0.00 0.00 0.00 73 1014.4
20260504171506 72 355 5.0 10.0 0.00 0.00 0.00 73 1014.2
20260504081505 64 229 0.0 1.0 0.00 0.00 0.00 73 1015.0
20260504070155 61 177 1.0 5.0 0.00 0.00 0.00 69 1015.2
20260504044544 62 172 2.0 6.0 0.00 0.00 0.00 67 1014.9
20260504043054 62 164 1.0 3.0 0.00 0.00 0.00 66 1015.0
20260504041543 62 159 2.0 6.0 0.00 0.00 0.00 67 1015.1
20260504040047 62 157 1.0 4.0 0.00 0.00 0.00 67 1014.9
20260504034551 62 153 0.0 3.0 0.00 0.00 0.00 67 1014.9
20260504033041 61 175 3.0 6.0 0.00 0.00 0.00 67 1015.0
20260504031538 62 180 1.0 6.0 0.00 0.00 0.00 67 1015.2
20260504030043 62 152 2.0 4.0 0.00 0.00 0.00 67 1015.1
20260504024536 62 190 1.0 3.0 0.00 0.00 0.00 65 1015.2
20260504023033 62 173 2.0 3.0 0.00 0.00 0.00 65 1015.2
20260504021536 63 181 1.0 4.0 0.00 0.00 0.00 65 1015.4
20260504020040 63 160 2.0 4.0 0.00 0.00 0.00 65 1015.5
20260504014535 63 199 1.0 3.0 0.00 0.00 0.00 64 1015.6
20260504013027 63 185 2.0 4.0 0.00 0.00 0.00 66 1015.9
20260504011526 63 194 1.0 3.0 0.00 0.00 0.00 64 1015.9
20260504010025 63 186 2.0 3.0 0.00 0.00 0.00 64 1015.9
20260504004523 63 196 0.0 4.0 0.00 0.00 0.00 65 1016.0
20260504003021 62 193 1.0 4.0 0.00 0.00 0.00 68 1016.5
20260504001520 63 146 2.0 4.0 0.00 0.00 0.00 67 1016.6
20260504000017 63 139 2.0 4.0 0.00 0.00 0.00 68 1016.7
20260503234520 62 161 1.0 3.0 0.00 0.00 0.00 69 1016.8
20260503233015 62 194 1.0 3.0 0.00 0.00 0.00 69 1016.7
20260503231520 62 179 1.0 3.0 0.00 0.00 0.00 69 1016.6
20260503230011 63 194 1.0 3.0 0.00 0.00 0.00 69 1016.8
20260503224509 63 205 0.0 2.0 0.00 0.00 0.00 72 1016.5